Weather in Armavir

Russia / Krasnodar Krai     44°59′51″N   41°07′46″E
temp.,
°C
wind,
m/s
gust,
m/s
humid.,
%
clouds,
%
prec.,
mm/h
press.,
hPa
HPBL,
m
27 october, wed
wed2700:00+2e36720 0.0 1031140
03:00+2ese36780 0.0 1030127
06:00+1ese49830 0.0 1029195
09:00+5ese611650 0.0 1027360
12:00+11ese46440 0.0 1026620
15:00+12ese45400 0.0 1024773
18:00+7ese49570 0.0 1024188
21:00+5se47650 0.0 1024114
28 october, thu
thu2800:00+4sse33720 0.0 102441
03:00+3ssw22740 0.0 102415
06:00+3sw11760 0.0 102410
09:00+7wsw23630 0.0 1025226
12:00+11w45540 0.0 1024734
15:00+12w56570 0.0 1023979
18:00+8wnw22771 0.0 102415
21:00+6nnw127321 0.0 102410
29 october, fri
fri2900:00+8wsw2567100 0.0 1023214
03:00+8w266099 0.0 1024292
06:00+5wsw226697 0.0 102444
09:00+8w2354100 0.0 1025277
12:00+11nw224169 0.0 1025731
15:00+11n324767 0.0 1025867
18:00+8ne355899 0.0 1027192
21:00+9ene245699 0.0 1027159
30 october, sat
sat3000:00+8e246199 0.0 1027143
03:00+6e34755 0.0 102872
06:00+5ene36785 0.0 1029118
09:00+9e511590 0.0 1029524
12:00+13e79460 0.0 10281075
15:00+13e79420 0.0 10271200
18:00+9e512470 0.0 1028358
21:00+8e513470 0.0 1028408
31 october, sun
sun3100:00+7e512530 0.0 1028368
03:00+7e513610 0.0 1027375
06:00+6e512691 0.0 1027331
09:00+9e716590 0.0 1026707
12:00+13ese10145095 0.0 1025883
15:00+14e8144992 0.0 10241019
18:00+11e9165768 0.0 1024831
21:00+11ese9176783 0.0 1022856